Location: Newark
(51.0000°N, 11.4100°E)
Time: 18:46:59
(UTC+00:00)

Vanguard 1 - All Passes

Search period start: 12 November 2019 00:00
Search period end: 22 November 2019 00:00
Orbit: 652 x 3831 km, 34.2° (Epoch: 11 November)

Date Brightness Start Highest point End Pass type
(mag) Time Alt. Az. Time Alt. Az. Time Alt. Az.
13 Nov - 12:49:33 10° S 12:50:24 10° S 12:51:14 10° SSE daylight
14 Nov - 13:09:51 10° SSW 13:11:00 11° S 13:12:08 10° S daylight
15 Nov - 11:10:58 10° S 11:12:34 11° S 11:14:02 10° SSE daylight
15 Nov - 13:30:56 10° SSW 13:31:36 10° S 13:32:15 10° S daylight
16 Nov - 11:30:40 10° SSW 11:33:14 13° S 11:35:28 10° SSE daylight
17 Nov - 09:32:25 10° S 09:34:28 11° SSE 09:36:18 10° SSE daylight
17 Nov - 11:51:00 10° SSW 11:53:53 14° S 11:56:21 10° SSE daylight
18 Nov - 09:51:20 10° SSW 09:55:12 14° S 09:58:21 10° SE daylight
18 Nov - 12:11:40 10° SW 12:14:29 14° S 12:16:56 10° SSE daylight
19 Nov - 10:11:13 10° SSW 10:15:56 16° S 10:19:35 10° SE daylight
19 Nov - 12:32:38 10° SW 12:35:04 13° SSW 12:37:13 10° SSE daylight
20 Nov - 08:12:08 10° S 08:16:45 13° SSE 08:20:27 10° SE daylight
20 Nov - 10:31:30 10° SW 10:36:38 18° S 10:40:30 10° SE daylight
20 Nov - 12:54:09 10° SW 12:55:36 11° SSW 12:56:56 10° S daylight
21 Nov - 08:31:13 10° SSW 08:37:33 17° SSE 08:42:14 10° SE daylight
21 Nov - 10:52:05 10° SW 10:57:18 19° S 11:01:11 10° SE daylight
